Weather History for Watsonville, CA

Change the Weather History Date:

Monday, September 2, 2013

  Actual Average Record
Temperature  
Mean Temperature 72 °F 64 °F  
Max Temperature 81 °F 76 °F 91 °F (2009)
Min Temperature 62 °F 53 °F 49 °F (2011)
Degree Days  
Heating Degree Days 0    
Month to date heating degree days 0  
Since 1 July heating degree days 145  
Cooling Degree Days 7    
Month to date cooling degree days 13  
Year to date cooling degree days 82  
Growing Degree Days 21 (Base 50)    
Moisture  
Dew Point 58 °F    
Average Humidity 66    
Maximum Humidity 84    
Minimum Humidity 47    
Precipitation  
Precipitation T in - 0.04 in (2000)
Month to date precipitation T  
Year to date precipitation 2.46  
Since 1 July precipitation 0.07  
Sea Level Pressure  
Sea Level Pressure 29.93 in    
Wind  
Wind Speed 4 mph (South)    
Max Wind Speed 13 mph    
Max Gust Speed 20 mph    
Visibility 10 miles    
Events Rain    
T = Trace of Precipitation, MM = Missing Value Source: NWS Daily Summary

Daily Weather History Graph

Daily Weather History Graph

Search for Another Location

Airport:

Trip Planner

Search our weather history database for the weather conditions in past years. The results will help you decide how hot, cold, wet, or windy it might be!

Date:

Astronomy

Sep. 02, 2013 Rise Set
Actual Time 6:39 AM PDT 7:33 PM PDT
Civil Twilight 6:12 AM PDT 8:00 PM PDT
Nautical Twilight 5:41 AM PDT 8:31 PM PDT
Astronomical Twilight 5:08 AM PDT 9:03 PM PDT
Moon 4:03 AM PDT (9/2) 5:48 PM PDT (9/2)
Length of Visible Light 13h 47m
Length of Day
12h 54m
Waning Crescent, 7% of the Moon is Illuminated
Sep 2
Waning Crescent
Sep 5
New
Sep 12
First Quarter
Sep 19
Full
Sep 26
Last Quarter

Hourly Weather History & Observations

Time (PDT) Temp. Dew Point Humidity Pressure Visibility Wind Dir Wind Speed Gust Speed Precip Events Conditions
12:53 AM 64.9 °F 59.0 °F 81% 29.93 in 10.0 mi Calm Calm - 0.00 in   Clear
1:53 AM 64.0 °F 57.9 °F 80% 29.93 in 10.0 mi Calm Calm - N/A   Mostly Cloudy
2:53 AM 64.0 °F 57.9 °F 80% 29.92 in 10.0 mi WNW 3.5 mph - N/A   Mostly Cloudy
3:53 AM 64.0 °F 59.0 °F 84% 29.91 in 10.0 mi Calm Calm - N/A   Scattered Clouds
4:53 AM 64.0 °F 57.9 °F 80% 29.91 in 10.0 mi Calm Calm - N/A   Clear
5:53 AM 64.0 °F 57.9 °F 80% 29.92 in 10.0 mi Calm Calm - N/A   Clear
6:53 AM 63.0 °F 57.9 °F 84% 29.94 in 10.0 mi East 3.5 mph - N/A   Mostly Cloudy
7:53 AM 63.0 °F 57.9 °F 84% 29.96 in 10.0 mi Calm Calm - N/A   Overcast
8:53 AM 66.9 °F 59.0 °F 76% 29.96 in 10.0 mi Calm Calm - N/A   Overcast
9:53 AM 69.1 °F 59.0 °F 70% 29.97 in 10.0 mi Calm Calm - N/A   Mostly Cloudy
10:53 AM 73.0 °F 57.9 °F 59% 29.96 in 10.0 mi Calm Calm - N/A   Overcast
11:53 AM 79.0 °F 57.9 °F 48% 29.96 in 10.0 mi SSW 5.8 mph - N/A   Overcast
12:53 PM 77.0 °F 55.9 °F 48% 29.94 in 10.0 mi SW 6.9 mph - N/A   Partly Cloudy
1:53 PM 78.1 °F 57.9 °F 50% 29.93 in 10.0 mi WSW 11.5 mph - N/A   Clear
2:53 PM 75.0 °F 59.0 °F 57% 29.92 in 10.0 mi SW 11.5 mph - N/A   Clear
3:53 PM 79.0 °F 57.9 °F 48% 29.90 in 10.0 mi SW 5.8 mph - N/A   Clear
4:53 PM 75.9 °F 59.0 °F 56% 29.89 in 10.0 mi SSW 5.8 mph - N/A   Clear
5:53 PM 73.0 °F 59.0 °F 61% 29.89 in 10.0 mi ESE 8.1 mph - N/A   Clear
6:53 PM 66.0 °F 57.9 °F 75% 29.89 in 10.0 mi SSE 8.1 mph - N/A   Clear
7:53 PM 64.9 °F 59.0 °F 81% 29.91 in 10.0 mi ESE 8.1 mph - N/A   Clear
8:53 PM 66.0 °F 59.0 °F 78% 29.92 in 10.0 mi ESE 4.6 mph - N/A   Clear
9:53 PM 66.0 °F 59.0 °F 78% 29.94 in 10.0 mi Calm Calm - 0.00 in Rain Light Rain
10:53 PM 64.9 °F 59.0 °F 81% 29.94 in 10.0 mi Calm Calm - 0.00 in   Clear
11:53 PM 62.1 °F 57.9 °F 86% 29.95 in 10.0 mi Calm Calm - N/A   Clear